| time (UTC) | temp C | wind direction | speed KPH | gust KPH | rain 1hr cm | rain 24hr cm | rain mn cm | humidity % | barometer mb |
| 20260504041803 | 3 | 82 | 0.0 | 1.6 | 0.00 | 0.00 | 0.00 | 72 | 1019.8 |
| 20260504040903 | 3 | 57 | 0.0 | 1.6 | 0.00 | 0.00 | 0.00 | 72 | 1020.0 |
| 20260504040004 | 3 | 37 | 0.0 | 1.6 | 0.00 | 0.00 | 0.00 | 70 | 1020.0 |
| 20260504035403 | 3 | 45 | 0.0 | 1.6 | 0.00 | 0.00 | 0.00 | 71 | 1019.8 |
| 20260504034503 | 4 | 18 | 0.0 | 1.6 | 0.00 | 0.00 | 0.00 | 69 | 1019.8 |
| 20260504033603 | 4 | 40 | 0.0 | 1.6 | 0.00 | 0.00 | 0.00 | 69 | 1019.8 |
| 20260504032703 | 4 | 62 | 0.0 | 1.6 | 0.00 | 0.00 | 0.00 | 70 | 1019.6 |
| 20260504031803 | 5 | 54 | 0.0 | 1.6 | 0.00 | 0.00 | 0.00 | 69 | 1019.6 |
| 20260504030903 | 5 | 35 | 0.0 | 3.2 | 0.00 | 0.00 | 0.00 | 68 | 1019.5 |
| 20260504030003 | 5 | 36 | 0.0 | 1.6 | 0.00 | 0.00 | 0.00 | 67 | 1019.8 |
| 20260504025424 | 5 | 34 | 0.0 | 3.2 | 0.00 | 0.00 | 0.00 | 69 | 1019.8 |
| 20260504024503 | 5 | 26 | 3.2 | 6.4 | 0.00 | 0.00 | 0.00 | 67 | 1020.2 |
| 20260504023603 | 5 | 25 | 1.6 | 3.2 | 0.00 | 0.00 | 0.00 | 66 | 1020.0 |
| 20260504022724 | 5 | 25 | 0.0 | 1.6 | 0.00 | 0.00 | 0.00 | 66 | 1020.2 |
| 20260504021803 | 6 | 21 | 0.0 | 1.6 | 0.00 | 0.00 | 0.00 | 64 | 1020.0 |
| 20260504020924 | 6 | 34 | 0.0 | 3.2 | 0.00 | 0.00 | 0.00 | 64 | 1020.2 |
| 20260504020024 | 6 | 32 | 0.0 | 3.2 | 0.00 | 0.00 | 0.00 | 60 | 1020.0 |
| 20260504015403 | 6 | 56 | 0.0 | 1.6 | 0.00 | 0.00 | 0.00 | 60 | 1019.8 |
| 20260504014503 | 7 | 41 | 0.0 | 1.6 | 0.00 | 0.00 | 0.00 | 59 | 1019.5 |
| 20260504013603 | 7 | 15 | 0.0 | 3.2 | 0.00 | 0.00 | 0.00 | 57 | 1019.5 |
| 20260504012703 | 7 | 8 | 0.0 | 3.2 | 0.00 | 0.00 | 0.00 | 57 | 1019.5 |
| 20260504011803 | 8 | 33 | 0.0 | 9.7 | 0.00 | 0.00 | 0.00 | 55 | 1019.2 |
| 20260504010903 | 8 | 22 | 0.0 | 3.2 | 0.00 | 0.00 | 0.00 | 56 | 1019.4 |
| 20260504010003 | 8 | 25 | 0.0 | 3.2 | 0.00 | 0.00 | 0.00 | 54 | 1019.3 |
| 20260504005403 | 9 | 20 | 0.0 | 1.6 | 0.00 | 0.00 | 0.00 | 52 | 1019.3 |
| 20260504004524 | 10 | 0 | 0.0 | 0.0 | 0.00 | 0.00 | 0.00 | 48 | 1019.3 |
| 20260504003603 | 10 | 19 | 0.0 | 1.6 | 0.00 | 0.00 | 0.00 | 47 | 1019.0 |
| 20260504002703 | 11 | 19 | 0.0 | 1.6 | 0.00 | 0.00 | 0.00 | 46 | 1019.2 |
| 20260504001803 | 11 | 30 | 0.0 | 3.2 | 0.00 | 0.00 | 0.00 | 46 | 1019.2 |
| 20260504000903 | 11 | 26 | 1.6 | 4.8 | 0.00 | 0.00 | 0.00 | 43 | 1019.1 |
| 20260504000003 | 12 | 29 | 1.6 | 6.4 | 0.00 | 0.00 | 0.00 | 40 | 1019.1 |
| 20260503235403 | 12 | 30 | 0.0 | 3.2 | 0.00 | 0.00 | 0.00 | 40 | 1019.0 |
| 20260503234524 | 13 | 30 | 1.6 | 6.4 | 0.00 | 0.00 | 0.00 | 39 | 1019.1 |
| 20260503233603 | 13 | 14 | 1.6 | 4.8 | 0.00 | 0.00 | 0.00 | 37 | 1018.8 |
| 20260503232703 | 15 | 12 | 1.6 | 4.8 | 0.00 | 0.00 | 0.00 | 35 | 1018.8 |
| 20260503231803 | 15 | 23 | 1.6 | 6.4 | 0.00 | 0.00 | 0.00 | 34 | 1018.8 |
| 20260503230903 | 15 | 22 | 3.2 | 9.7 | 0.00 | 0.00 | 0.00 | 34 | 1018.9 |
| 20260503230003 | 16 | 29 | 1.6 | 11.3 | 0.00 | 0.00 | 0.00 | 34 | 1018.4 |
| 20260503225403 | 16 | 37 | 3.2 | 14.5 | 0.00 | 0.00 | 0.00 | 33 | 1018.7 |
| 20260503224524 | 17 | 353 | 1.6 | 9.7 | 0.00 | 0.00 | 0.00 | 32 | 1018.8 |
| 20260503223603 | 17 | 313 | 3.2 | 12.9 | 0.00 | 0.00 | 0.00 | 29 | 1018.4 |
| 20260503222703 | 18 | 305 | 3.2 | 9.7 | 0.00 | 0.00 | 0.00 | 29 | 1018.8 |
| 20260503221803 | 18 | 324 | 1.6 | 4.8 | 0.00 | 0.00 | 0.00 | 27 | 1018.7 |
| 20260503220903 | 18 | 255 | 1.6 | 6.4 | 0.00 | 0.00 | 0.00 | 27 | 1018.7 |
| 20260503220003 | 19 | 179 | 3.2 | 6.4 | 0.00 | 0.00 | 0.00 | 29 | 1018.8 |
| 20260503215403 | 19 | 141 | 1.6 | 6.4 | 0.00 | 0.00 | 0.00 | 29 | 1018.8 |
| 20260503214503 | 19 | 53 | 1.6 | 4.8 | 0.00 | 0.00 | 0.00 | 28 | 1018.7 |
| 20260503213603 | 18 | 339 | 3.2 | 11.3 | 0.00 | 0.00 | 0.00 | 30 | 1018.8 |
| 20260503212703 | 18 | 4 | 4.8 | 12.9 | 0.00 | 0.00 | 0.00 | 27 | 1018.9 |
| 20260503211824 | 18 | 11 | 3.2 | 11.3 | 0.00 | 0.00 | 0.00 | 31 | 1018.9 |
| 20260503210903 | 18 | 353 | 1.6 | 6.4 | 0.00 | 0.00 | 0.00 | 30 | 1018.9 |
| 20260503210003 | 18 | 24 | 3.2 | 14.5 | 0.00 | 0.00 | 0.00 | 29 | 1019.3 |
| 20260503205403 | 18 | 32 | 3.2 | 14.5 | 0.00 | 0.00 | 0.00 | 30 | 1019.2 |
| 20260503204503 | 18 | 10 | 3.2 | 9.7 | 0.00 | 0.00 | 0.00 | 29 | 1019.2 |
| 20260503203603 | 18 | 76 | 3.2 | 9.7 | 0.00 | 0.00 | 0.00 | 30 | 1019.3 |
| 20260503202703 | 18 | 294 | 1.6 | 11.3 | 0.00 | 0.00 | 0.00 | 27 | 1019.1 |
| 20260503201803 | 18 | 40 | 3.2 | 12.9 | 0.00 | 0.00 | 0.00 | 29 | 1019.2 |
| 20260503200903 | 18 | 333 | 3.2 | 9.7 | 0.00 | 0.00 | 0.00 | 31 | 1019.4 |
| 20260503200003 | 18 | 304 | 3.2 | 14.5 | 0.00 | 0.00 | 0.00 | 26 | 1019.5 |
| 20260503195403 | 17 | 331 | 3.2 | 14.5 | 0.00 | 0.00 | 0.00 | 26 | 1019.4 |
| 20260503194503 | 17 | 3 | 3.2 | 16.1 | 0.00 | 0.00 | 0.00 | 26 | 1019.4 |
| 20260503193603 | 17 | 7 | 3.2 | 14.5 | 0.00 | 0.00 | 0.00 | 33 | 1019.8 |
| 20260503192703 | 16 | 19 | 4.8 | 14.5 | 0.00 | 0.00 | 0.00 | 30 | 1019.6 |
| 20260503191803 | 17 | 42 | 4.8 | 14.5 | 0.00 | 0.00 | 0.00 | 26 | 1019.9 |
| 20260503190924 | 16 | 42 | 4.8 | 16.1 | 0.00 | 0.00 | 0.00 | 30 | 1019.8 |
| 20260503190003 | 16 | 24 | 3.2 | 12.9 | 0.00 | 0.00 | 0.00 | 26 | 1019.9 |
| 20260503185403 | 16 | 182 | 4.8 | 17.7 | 0.00 | 0.00 | 0.00 | 26 | 1020.0 |
| 20260503184503 | 16 | 180 | 4.8 | 20.9 | 0.00 | 0.00 | 0.00 | 28 | 1020.2 |
| 20260503183603 | 15 | 1 | 3.2 | 14.5 | 0.00 | 0.00 | 0.00 | 27 | 1020.2 |
| 20260503182703 | 15 | 325 | 4.8 | 14.5 | 0.00 | 0.00 | 0.00 | 28 | 1020.5 |
| 20260503181803 | 15 | 30 | 4.8 | 12.9 | 0.00 | 0.00 | 0.00 | 24 | 1020.8 |
| 20260503180903 | 15 | 5 | 3.2 | 9.7 | 0.00 | 0.00 | 0.00 | 36 | 1020.6 |
| 20260503180003 | 14 | 341 | 3.2 | 6.4 | 0.00 | 0.00 | 0.00 | 31 | 1020.9 |
| 20260503175403 | 14 | 1 | 3.2 | 14.5 | 0.00 | 0.00 | 0.00 | 31 | 1020.6 |
| 20260503174524 | 14 | 165 | 3.2 | 12.9 | 0.00 | 0.00 | 0.00 | 31 | 1020.8 |
| 20260503173603 | 14 | 188 | 3.2 | 9.7 | 0.00 | 0.00 | 0.00 | 34 | 1020.8 |
| 20260503172703 | 13 | 249 | 3.2 | 6.4 | 0.00 | 0.00 | 0.00 | 31 | 1020.9 |
| 20260503171824 | 13 | 343 | 3.2 | 16.1 | 0.00 | 0.00 | 0.00 | 33 | 1021.0 |
| 20260503170903 | 13 | 8 | 3.2 | 14.5 | 0.00 | 0.00 | 0.00 | 35 | 1021.2 |
| 20260503150924 | 9 | 47 | 3.2 | 12.9 | 0.00 | 0.00 | 0.00 | 39 | 1021.4 |
| 20260503130903 | 3 | 57 | 3.2 | 11.3 | 0.00 | 0.00 | 0.00 | 64 | 1020.6 |
| 20260503080903 | 1 | 55 | 1.6 | 6.4 | 0.00 | 0.00 | 0.00 | 81 | 1017.9 |
| 20260503072703 | 2 | 56 | 1.6 | 11.3 | 0.00 | 0.00 | 0.00 | 79 | 1018.0 |
| 20260503071803 | 2 | 50 | 1.6 | 6.4 | 0.00 | 0.00 | 0.00 | 78 | 1017.7 |
| 20260503070924 | 2 | 48 | 1.6 | 9.7 | 0.00 | 0.00 | 0.00 | 77 | 1017.7 |
| 20260503054503 | 2 | 54 | 1.6 | 6.4 | 0.00 | 0.00 | 0.00 | 75 | 1018.1 |
| 20260503053603 | 2 | 62 | 0.0 | 4.8 | 0.00 | 0.00 | 0.00 | 75 | 1017.7 |
| 20260503052703 | 2 | 77 | 1.6 | 6.4 | 0.00 | 0.00 | 0.00 | 73 | 1017.8 |
| 20260503051824 | 3 | 71 | 1.6 | 9.7 | 0.00 | 0.00 | 0.00 | 73 | 1017.8 |
| 20260503050924 | 3 | 25 | 1.6 | 4.8 | 0.00 | 0.00 | 0.00 | 72 | 1017.5 |
| 20260503050024 | 3 | 45 | 1.6 | 6.4 | 0.00 | 0.00 | 0.00 | 73 | 1017.7 |
| 20260503045403 | 3 | 28 | 1.6 | 9.7 | 0.00 | 0.00 | 0.00 | 73 | 1017.5 |
| 20260503044503 | 3 | 62 | 1.6 | 4.8 | 0.00 | 0.00 | 0.00 | 73 | 1017.4 |
| 20260503043603 | 3 | 4 | 0.0 | 4.8 | 0.00 | 0.00 | 0.00 | 72 | 1017.7 |
| 20260503042703 | 3 | 41 | 1.6 | 3.2 | 0.00 | 0.00 | 0.00 | 72 | 1017.7 |